RH
77 75 94 96 97 96 95 98 94 97 96 97 96 96 96 97 96 96 97 97 97 98 99 99 99 98 99 100 99 100 96 99 97 99 94 86 76 86 99 99 99 100 98 99
58 55 75 74 88 92 91 94 92 95 98 99 97 96 96 96 95 96 96 97 97 97 97 99 99 98 98 98 98 98 99 99 98 99 90 96 89 99 98 97 96 98 96 99
46 50 55 71 93 96 97 96 94 92 100 100 99 94 98 96 95 96 95 96 96 96 97 98 98 98 99 96 96 96 89 95 94 98 99 100 100 100 98 99 99 98 99 99
50 54 89 85 97 98 97 97 97 97 95 96 100 100 96 94 95 96 94 94 95 95 98 97 98 98 97 84 96 97 98 98 96 96 92 99 99 99 99 99 99 98 98 98
53 68 73 77 83 93 89 95 96 95 95 94 96 91 93 95 96 96 95 96 95 98 98 98 96 100 80 72 74 87 96 100 99 99 99 99 98 97 97 97 97 98 100 97
53 77 97 81 78 84 85 90 95 95 95 95 96 95 95 95 96 96 96 96 98 98 94 92 80 74 74 78 86 100 100 99 98 99 100 99 97 96 96 96 96 97 97 96
50 61 71 76 81 75 78 87 94 94 96 96 95 95 96 96 96 97 97 98 98 100 100 93 88 92 88 92 95 99 99 98 98 95 96 95 93 93 94 95 96 96 96 96
47 59 60 66 75 84 92 93 96 94 98 96 96 96 96 95 95 94 95 96 96 97 95 95 92 93 94 96 98 96 94 96 97 97 97 95 94 93 93 95 96 96 96 96
23 19 20 41 62 71 80 85 91 96 100 100 100 98 96 96 97 97 95 96 95 95 94 93 94 96 95 95 97 96 97 97 98 98 99 97 96 95 96 96 96 96 96 96
22 18 15 16 44 54 62 72 80 86 97 100 96 95 94 95 96 96 96 95 92 94 93 91 92 94 92 93 96 96 97 96 96 99 98 96 94 94 95 96 96 96 96 95
30 18 17 16 15 18 39 48 59 67 77 91 96 93 92 90 92 93 94 93 92 92 93 94 94 95 95 96 97 96 94 96 99 98 98 97 96 96 96 95 94 94 93 90
54 49 35 20 16 18 16 23 37 45 54 62 77 92 95 93 93 91 89 91 92 94 93 95 94 96 95 96 96 98 97 96 98 96 96 94 96 93 93 91 88 80 68 61
61 64 63 61 56 29 16 19 21 18 35 40 49 61 76 86 94 96 95 88 82 87 87 92 93 94 94 96 96 88 84 79 65 57 52 51 49 47 44 46 46 44 43 41
62 65 69 69 67 66 64 41 19 16 22 23 28 38 44 59 71 79 82 86 83 81 86 91 91 99 100 96 91 91 79 51 46 43 43 43 43 43 42 39 38 39 40 40
60 64 64 67 69 72 76 77 71 64 40 18 16 24 28 33 42 49 59 69 73 80 87 90 91 82 79 89 96 92 75 54 52 49 49 48 45 44 44 44 44 43 42 40
53 59 62 65 68 66 68 74 85 90 88 74 68 60 37 18 24 32 34 42 51 62 70 74 87 91 79 73 71 69 69 66 60 56 55 54 54 53 55 56 52 49 47 47
48 54 58 60 63 72 71 68 68 76 81 90 92 93 79 63 63 61 31 18 29 36 41 59 78 86 82 81 77 74 74 74 71 68 64 61 62 63 63 62 57 52 53 60
52 53 55 59 75 76 73 70 66 68 75 86 89 92 95 94 96 94 79 61 57 44 26 32 39 58 77 85 88 85 80 78 76 73 83 83 80 75 75 71 64 59 57 67
59 59 63 76 85 88 88 87 84 74 70 75 90 98 97 96 91 90 92 93 92 73 62 58 43 27 37 47 63 82 90 94 95 91 95 96 86 84 84 80 72 70 72 85
72 75 79 90 99 98 93 88 81 71 69 80 95 100 100 99 89 83 83 87 97 96 94 82 67 61 56 35 27 44 54 65 85 96 95 98 98 96 95 86 82 80 78 90
85 75 62 56 62 84 100 98 88 92 100 97 94 95 96 97 91 86 86 88 99 92 88 88 94 84 67 63 63 52 29 40 64 68 76 89 99 98 93 92 93 90 90 99
58 63 68 76 87 96 100 100 98 100 100 100 98 97 96 99 94 86 82 86 97 95 92 90 84 93 95 78 68 67 66 57 41 65 79 85 89 96 100 100 100 95 100 100
59 66 78 87 94 100 100 100 98 99 100 99 100 100 96 95 88 81 80 84 89 95 95 93 85 76 92 97 84 80 81 78 69 49 66 82 95 99 99 96 100 100 100 100
74 77 79 80 88 96 98 99 99 100 100 99 99 98 92 83 84 78 85 89 93 96 96 94 85 77 77 92 94 82 83 92 92 84 62 76 87 87 87 94 100 100 100 100
79 76 82 88 90 94 95 98 100 99 100 99 99 96 87 83 84 83 83 88 96 98 98 95 89 82 78 82 90 94 93 99 100 100 99 94 82 98 100 100 100 100 99 94
86 86 89 94 97 98 97 98 100 99 97 99 98 93 88 86 84 88 81 80 96 99 95 83 89 91 85 82 84 92 97 100 100 100 100 100 100 100 98 92 86 81 79 85
96 96 93 95 100 99 100 100 100 100 99 99 100 98 97 97 96 96 90 75 78 96 96 80 71 81 91 89 86 94 100 100 100 100 100 100 100 100 100 100 100 100 99 99
Wind_Speed
13 11 19 34 38 35 32 18 12 16 22 19 10 5 7 12 14 18 23 28 29 34 47 48 45 46 56 56 45 43 42 41 40 40 37 36 33 39 39 35 37 35 41 37
7 9 7 28 31 32 25 23 20 18 22 17 13 6 5 8 11 12 15 18 21 25 27 35 39 40 34 30 34 37 39 34 41 35 37 32 32 38 38 43 42 42 43 40
5 7 4 11 29 22 23 20 19 22 17 12 11 8 6 6 9 11 14 15 17 18 21 28 29 27 28 23 23 25 27 29 31 30 31 36 35 35 37 38 34 41 39 41
8 5 6 10 16 15 13 14 13 11 11 12 12 12 7 7 7 9 12 14 16 15 17 21 25 27 26 25 28 30 29 31 30 30 30 31 35 34 35 33 33 38 35 36
7 7 2 12 15 13 12 15 12 11 9 8 7 8 7 7 8 8 9 11 14 14 16 17 21 22 23 23 24 27 29 32 31 29 30 30 30 27 25 25 27 29 33 33
7 3 1 12 11 9 8 9 11 10 9 6 4 4 5 8 9 10 11 10 10 11 13 15 18 21 21 20 20 22 24 26 27 29 31 29 25 24 25 27 29 29 29 26
8 2 1 13 12 8 4 7 9 8 6 6 5 5 5 5 6 8 10 11 11 11 11 13 15 16 17 18 18 20 21 23 26 27 28 28 28 27 25 25 25 25 24 24
6 2 2 8 8 6 6 8 8 8 4 3 4 5 5 4 4 4 4 5 6 6 8 9 10 12 14 16 16 17 18 19 21 23 25 25 25 24 24 24 23 24 24 25
6 9 14 10 8 7 7 8 8 8 4 2 3 3 4 5 4 4 4 4 4 5 6 7 9 10 11 12 13 14 15 16 17 18 19 21 21 22 22 23 23 23 25 26
14 14 14 12 11 10 9 8 8 7 5 1 1 4 4 3 3 3 3 4 4 5 7 8 10 11 13 14 14 14 14 15 16 17 17 18 19 20 19 21 25 27 25 22
13 10 13 10 11 14 14 12 11 9 7 6 4 5 5 4 4 3 2 2 3 4 5 7 8 10 11 13 14 14 14 14 14 14 16 18 21 23 23 23 21 17 15 16
13 12 12 12 11 11 12 14 15 14 12 10 9 9 10 10 9 8 6 6 6 7 8 9 10 12 13 14 14 15 16 16 17 18 17 17 17 16 15 15 16 18 20 21
11 12 12 12 12 12 11 11 13 17 18 17 15 13 14 15 16 16 15 14 14 13 12 12 12 13 15 16 17 15 14 15 16 15 15 15 15 15 15 16 17 18 20 21
11 11 11 12 11 11 12 13 13 12 13 17 20 21 20 19 18 18 18 18 18 18 17 16 16 16 17 18 19 18 18 18 18 18 17 17 17 17 18 18 19 20 22 25
11 11 12 11 11 11 12 13 13 15 16 15 14 16 21 25 25 24 23 22 20 20 20 20 20 20 20 19 20 21 22 21 21 21 21 21 21 20 20 21 22 23 26 28
12 12 12 11 10 9 10 11 12 14 13 16 18 18 17 17 19 23 29 30 28 26 25 24 23 25 25 25 25 27 27 27 26 25 25 24 23 24 24 25 26 27 28 28
15 15 15 13 11 10 11 13 15 16 18 18 16 17 19 20 20 21 23 23 25 31 34 32 29 30 31 30 31 31 31 31 30 30 29 28 28 28 27 28 29 30 29 29
19 19 19 18 18 18 17 17 19 22 23 24 23 22 21 20 19 22 25 27 26 25 25 29 35 38 38 37 36 36 36 35 36 35 34 34 32 32 32 32 32 32 32 32
22 22 23 23 25 26 26 27 26 28 29 30 29 27 26 25 25 25 25 25 26 28 27 32 32 33 36 41 44 43 42 42 42 42 38 38 38 37 36 35 35 34 33 33
25 25 26 27 31 34 35 33 32 30 33 33 31 29 29 29 29 29 29 27 27 28 30 33 35 35 35 36 38 40 45 48 48 47 46 43 43 41 38 38 38 37 36 35
28 34 41 43 40 38 34 31 30 30 29 28 28 29 28 27 29 30 28 27 26 31 30 29 33 34 35 37 40 40 38 39 43 48 50 49 46 44 42 41 40 38 37 36
32 29 29 31 33 30 30 29 28 27 28 28 26 25 25 23 25 26 27 27 27 30 29 29 29 31 33 35 37 39 40 38 36 37 41 45 46 44 42 41 41 38 38 38
26 26 25 24 23 25 27 28 27 27 26 25 22 21 21 23 25 26 25 28 27 28 29 29 29 29 31 33 32 34 36 37 37 35 34 36 39 42 41 40 38 38 39 40
22 23 24 23 22 20 20 20 20 20 20 18 19 21 21 22 23 24 23 23 24 24 25 26 27 27 29 30 29 29 32 34 36 36 35 35 36 37 38 37 39 39 40 40
29 30 28 27 24 22 20 20 18 17 17 18 18 18 19 21 21 22 20 20 20 19 19 21 22 23 25 25 25 25 27 30 32 35 37 37 36 35 36 37 37 37 37 38
33 33 34 33 29 25 25 23 21 20 19 19 20 20 21 21 21 21 19 18 18 17 17 17 18 18 19 20 21 22 24 26 28 30 32 33 34 35 36 37 37 38 38 37
36 37 36 33 28 26 25 25 24 24 25 24 24 25 24 22 21 20 19 17 17 16 16 15 15 14 15 16 16 18 19 20 22 25 26 26 27 28 29 30 31 32 33 33
Wind_Direction
22 356 25 30 38 45 59 69 61 53 51 39 50 103 166 181 183 172 168 176 175 179 190 208 213 210 210 213 223 215 229 224 225 229 231 235 239 227 230 232 237 244 241 243
16 351 19 24 34 42 50 57 65 61 49 34 37 60 124 183 199 196 192 190 188 184 183 203 203 214 220 216 218 214 225 226 229 227 236 235 237 231 234 235 244 245 246 245
2 2 8 13 13 26 37 40 40 34 28 22 42 62 97 139 186 198 200 205 209 203 197 197 206 211 224 225 228 221 216 221 227 227 225 228 232 232 237 238 243 242 244 244
352 18 42 347 12 21 31 37 49 43 27 27 34 48 74 123 159 181 191 197 203 204 205 208 217 221 226 227 225 221 220 220 219 224 228 229 234 243 245 247 242 240 237 238
20 37 339 3 358 4 13 17 19 26 29 25 27 59 64 116 133 145 173 185 190 195 205 207 215 219 227 228 227 224 222 224 223 225 227 229 227 228 231 238 237 234 229 230
25 66 162 357 349 345 349 12 7 12 12 25 46 96 91 95 112 122 131 148 166 181 195 206 211 219 228 231 231 231 222 227 226 224 226 231 233 237 241 238 236 235 235 234
15 358 320 3 358 342 2 335 5 4 13 21 75 97 107 119 116 114 117 125 136 144 158 182 194 202 212 215 218 220 221 220 222 225 228 231 237 238 235 229 227 225 222 219
338 322 344 351 2 15 3 348 354 5 28 48 85 91 98 110 131 141 135 128 128 132 143 157 169 181 191 195 199 206 213 214 213 213 216 219 218 215 210 207 207 209 213 217
303 295 302 300 310 330 337 343 344 352 12 84 119 123 119 111 103 114 135 149 168 184 190 194 191 191 191 192 189 189 190 193 196 199 199 201 203 206 210 212 213 217 215 208
320 334 324 304 278 284 296 309 320 326 337 255 162 148 137 125 118 112 119 140 159 172 186 191 192 191 190 188 189 189 190 195 199 201 200 203 205 201 196 196 195 192 195 199
318 322 325 328 305 278 271 274 281 293 301 294 252 222 215 208 192 190 187 201 200 200 203 207 209 201 192 186 182 182 179 178 180 178 180 185 190 191 192 194 193 193 204 214
313 314 316 316 316 314 285 267 264 266 271 273 269 258 240 231 231 233 235 236 236 231 224 221 221 224 217 208 201 194 188 188 190 189 189 192 194 196 203 208 213 220 228 233
305 307 308 307 306 308 306 302 275 263 258 260 261 257 254 252 247 246 248 247 243 240 240 236 224 220 220 216 208 198 203 203 200 202 204 205 206 210 217 222 224 230 237 242
298 304 307 314 316 309 299 295 294 289 276 261 253 252 255 253 250 250 250 249 248 247 244 240 240 234 225 221 218 211 214 215 210 210 210 214 218 223 230 237 242 246 248 251
295 301 304 308 318 325 325 320 305 290 287 282 276 264 252 248 250 251 251 249 247 245 244 243 239 237 238 235 225 218 220 222 221 222 224 227 231 236 242 248 253 256 257 259
292 291 291 294 299 312 324 331 328 319 304 290 283 277 272 265 258 253 250 249 250 248 246 242 241 242 240 236 234 233 232 232 232 234 237 241 244 247 251 255 257 259 261 263
285 283 279 275 279 294 305 311 315 310 305 300 296 285 276 273 270 264 260 257 253 251 249 247 244 242 243 242 241 239 238 240 241 241 245 249 252 255 258 261 265 267 268 266
273 270 268 266 270 279 286 291 299 305 304 298 291 287 282 279 275 269 266 265 261 256 254 251 247 244 244 243 242 242 243 245 247 248 251 253 255 257 259 262 267 269 269 266
273 269 265 265 269 276 281 287 294 296 293 291 288 284 279 277 276 275 273 270 266 259 255 253 251 249 247 246 246 246 245 246 248 250 249 252 254 257 261 266 269 268 267 264
273 271 270 272 276 281 286 288 289 286 284 283 281 281 278 275 275 277 274 271 268 263 253 252 254 253 251 251 251 249 249 249 250 251 252 252 254 258 261 263 263 263 264 262
278 284 288 289 285 283 281 277 277 278 282 283 281 280 278 276 276 275 275 271 267 263 261 259 256 254 253 251 251 252 251 252 251 250 251 253 254 256 258 258 258 261 260 259
296 297 298 291 283 281 282 281 281 282 282 284 283 278 278 279 278 279 279 273 265 266 265 262 260 257 253 253 251 251 251 250 253 252 249 249 251 251 252 254 257 257 255 257
307 311 314 311 304 290 282 280 280 280 280 280 276 275 279 282 283 283 281 278 270 264 263 263 262 259 257 254 254 253 252 250 249 250 250 248 248 250 251 252 250 250 252 256
315 321 320 314 316 313 303 293 286 281 276 271 276 282 285 287 287 284 283 278 275 270 264 261 262 260 258 257 256 255 252 249 247 246 247 247 246 247 248 248 250 251 254 257
309 314 314 317 305 299 301 300 293 283 277 280 281 287 291 291 290 288 286 281 277 274 269 265 263 262 261 261 259 257 255 251 248 246 244 244 245 247 248 250 251 254 255 258
311 313 312 311 307 292 284 285 287 285 282 284 287 289 290 290 289 287 283 279 277 275 271 270 268 267 265 262 258 254 252 249 248 248 247 248 251 251 251 252 254 257 260 262
309 309 308 306 300 289 281 278 277 278 280 282 284 286 287 286 285 284 280 277 276 275 271 270 272 270 266 263 258 252 249 248 248 249 250 250 252 254 255 256 257 259 262 264